Regional Weather Roundup
Issued by NWS

Home | Current Version | Previous Version | Graphics & Text | Print | Product List | Glossary Off
Versions: 1 2 3 4 5 6 7 8 9 10 11 12 13 14 15 16 17 18 19 20 21 22 23 24 25 26 27 28 29 30 31 32 33 34 35 36 37 38 39 40 41 42 43 44 45 46 47 48 49 50

000
ASUS43 KMKX 290811
RWRWI

WISCONSIN REGIONAL WEATHER ROUNDUP
NATIONAL WEATHER SERVICE MILWAUKEE/SULLIVAN WI
300 AM CDT THU JUN 29 2017

NOTE: "FAIR" INDICATES FEW OR NO CLOUDS BELOW 12,000 FEET WITH NO
SIGNIFICANT WEATHER AND/OR OBSTRUCTIONS TO VISIBILITY.

WIZ001-002-006>008-014>016-023>028-290900-
NORTHWEST WISCONSIN

CITY           SKY/WX    TMP DP  RH WIND       PRES   REMARKS
SUPERIOR ARPT  NOT AVBL
ASHLAND        CLOUDY    60  58  92 W14       29.51R
HAYWARD        LGT RAIN  59  57  93 VRB5      29.56S
SIREN          CLOUDY    62  60  95 W8        29.60R
CUMBERLAND     LGT RAIN  63  61  94 W16       29.58S
RICE LAKE      CLOUDY    65  62  90 W12       29.59S
CHETEK         CLOUDY    64  62  93 W7        29.58S
LADYSMITH      CLOUDY    65  64  95 W8        29.59R
EAU CLAIRE     CLEAR     64  61  90 W8        29.58S
MENOMONIE      PTCLDY    63  60  90 SW5       29.60S
NEW RICHMOND   CLOUDY    65  59  82 NW14      29.62S
OSCEOLA        CLOUDY    64  64 100 W13G18    29.64R
$$

WIZ003>005-009-010-017-018-290900-
NORTH CENTRAL WISCONSIN

CITY           SKY/WX    TMP DP  RH WIND       PRES   REMARKS
MANITOWISH WTR CLOUDY    64  64 100 SW9       29.55S
ARBOR VITAE    LGT RAIN  64  63  95 SW8       29.56S
WOODRUFF       LGT RAIN  64  63  95 SW8       29.56S
RHINELANDER    CLOUDY    64  64 100 SW7G16    29.58F
EAGLE RIVER    CLOUDY    64  64 100 CALM      29.56F
LAND O LAKES   CLOUDY    65  64  99 S3        29.58F FOG
PHILLIPS       CLOUDY    64  64 100 SW5       29.56S
TOMAHAWK       NOT AVBL
MEDFORD        CLOUDY    63  62  96 SW7       29.59S
MERRILL        MOCLDY    64  64 100 SW6       29.58F
$$

WIZ029-030-035-036-043>047-290900-
CENTRAL WISCONSIN

CITY           SKY/WX    TMP DP  RH WIND       PRES   REMARKS
WAUSAU         CLOUDY    65  64  97 SW6       29.58S
MOSINEE        CLOUDY    63  63 100 S7        29.61S FOG
MARSHFIELD     PTCLDY    64  62  93 W8        29.59S
STEVENS POINT  CLOUDY    63  63 100 S6        29.62S FOG
WAUPACA        CLOUDY    65  64  99 S5        29.62S
WAUTOMA        CLOUDY    64  63  96 S8        29.64S
WISC RAPIDS    MOCLDY    65  63  93 SW8       29.62S
CAMP DOUGLAS   CLEAR     67  64  89 S10       29.62R
$$

WIZ011>013-019>022-031-037>040-048>050-290900-
NORTHEAST WISCONSIN

CITY           SKY/WX    TMP DP  RH WIND       PRES   REMARKS
ANTIGO         CLOUDY    64  64  99 SW7       29.60S
SHAWANO        NOT AVBL
OCONTO         CLOUDY    65  63  93 S3        29.61R
STURGEON BAY     N/A     58  58 100 S14       29.62F FOG
GREEN BAY      CLOUDY    67  65  93 S12       29.62S
MANITOWOC      CLOUDY    64  62  93 S12       29.65F
APPLETON       PTCLDY    64  64 100 S12       29.62S
CLINTONVILLE   CLOUDY    64  63  94 S8        29.61R
OSHKOSH        CLOUDY    67  63  87 S13       29.63F
$$

WIZ032>034-041-042-053>061-290900-
SOUTHWEST WISCONSIN

CITY           SKY/WX    TMP DP  RH WIND       PRES   REMARKS
LA CROSSE      CLEAR     68  65  90 S7        29.64R
SPARTA         CLEAR     62  62 100 CALM      29.64R
VIROQUA        CLEAR     64  64 100 SW8       29.66S
BOSCOBEL       CLOUDY    66  64  93 CALM      29.67R
PRAIRIE DU CHI CLOUDY    64  63  96 CALM      29.67R FOG
PLATTEVILLE    CLOUDY    69  69 100 SW9       29.71R
$$

WIZ056-057-062-063-064-067-068-290900-
SOUTH CENTRAL WISCONSIN

CITY           SKY/WX    TMP DP  RH WIND       PRES   REMARKS
REEDSBURG      CLOUDY    66  66 100 SW8       29.65S
BARABOO/DELLS  CLOUDY    66  63  90 SW7       29.65S
LONE ROCK      CLOUDY    66  64  93 NE3       29.66S
MINERAL POINT  CLOUDY    68  68 100 S6        29.70R
MADISON        CLOUDY    67  65  93 S9        29.68R
MIDDLETON      CLOUDY    68  67  98 SW5       29.69R
WATERTOWN      CLOUDY    64  64 100 S8        29.68R
MONROE         MOCLDY    64  63  94 S7        29.69S
JANESVILLE     MOCLDY    64  64 100 SE7       29.68F
$$

WIZ051-052-058>065-066-070>072-290900-
SOUTHEAST WISCONSIN

CITY           SKY/WX    TMP DP  RH WIND       PRES   REMARKS
MILWAUKEE      CLOUDY    66  64  93 S16G28    29.68F
WAUKESHA       MOCLDY    63  61  94 S9G18     29.69F
MILWAUKEE/TIMM CLOUDY    64  61  88 S15       29.68F
RACINE         CLOUDY    65  63  93 VRB3      29.72F
KENOSHA        CLOUDY    66  62  87 S9        29.71F
FOND DU LAC    CLOUDY    68  62  81 SW9       29.68S
SHEBOYGAN      CLOUDY    63  63 100 SW6       29.67S
WEST BEND      CLOUDY    64  63  94 W5        29.67R
JUNEAU         CLOUDY    65  63  91 SW8       29.70R
$$

LSZ147-162-290900-
LAKE SUPERIOR

STATION/POSITION TIME  TEMP    WIND        PRES    WAVE
                       AIR SEA DIR/SP/G            HT/PER
                 (UTC) (F)     (DEG/KT/KT) (MB)    (FT/S)
W MID LAKE BUOY  0750   46 39   70/ 16/ 19  999.0F   3/ 4
DEVILS ISLAND    0800   51      60/  7/ 10  999.3R
SAXON HARBOR     0740   66     200/  3/  5  998.6F
$$

LMZ867-665-643>646-290900-
LAKE MICHIGAN

STATION/POSITION TIME  TEMP    WIND        PRES    WAVE
                       AIR SEA DIR/SP/G            HT/PER
                 (UTC) (F)     (DEG/KT/KT) (MB)    (FT/S)
CHAMBERS ISLAND  0740   62     160/  5/ 13 1002.4F
S GREEN BAY BUOY 0800   67     200/ 10/ 14 1002.7
N MID LAKE BUOY  0750   56 54  190/ 14/ 17 1004.3R   7/ 7
NORTHPORT PIER   0800   60     160/ 11/ 22 1003.0
KEWAUNEE LAKESHO 0748   55     180/ 14/ 18 1003.2F
SHEBOYGAN LAKESH 0800   61     240/  5/  6 1004.7R
PORT WASHINGTON  0730   58     200/  8/ 15 1004.7F
ATWATER BUOY     0709   58 45  170/ 19/ 23 1005.7F
MILWAUKEE LAKESH 0750   64     190/ 15/ 18   N/A
S MID LAKE BUOY  0750   63 60  130/ 14/ 14 1007.5F   3/ 4
KENOSHA   LAKESH 0800   65     160/ 20/ 21 1006.1
$$

TC  - TEMPERATURE IN CELSIUS
VSB - VISIBILITY IN STATUTE MILES
WCI - WIND CHILL INDEX
HX  - HEAT INDEX





USA.gov is the U.S. government's official web portal to all federal, state and local government web resources and services.